Location: Newark
(53.3333°N, 83.7500°E)
Time: 15:41:52
(UTC+00:00)

SR - Pass Details

Date: 14 November 2019
Orbit: 573 x 882 km, 66.7° (Epoch: 06 December)

Event Time Altitude Azimuth Distance (km) Brightness Sun altitude
Rises 12:59:38 0° 264° (W) 3,292 ? -22.0°
Reaches altitude 10° 13:02:17 10° 275° (W) 2,411 ? -22.4°
Maximum altitude 13:07:12 30° 336° (NNW) 1,485 ? -23.1°
Enters shadow 13:10:20 19° 22° (NNE) 1,952 ? -23.6°
